OPS 4682 DEB, 38397

Orbit data source: Space-Track

OPS 4682 DEB, 38397 is space debris in LEO originally from a launch on Sat, 03 Apr 1965 UTC launched from the Air Force Western Test Range (AFWTR). Debris objects in space refer to the collection of defunct objects orbiting the Earth. Examples of debris include non-operational satellites, rocket bodies, and fragments generated from explosions, collisions, or faulty payload assembly.

Loading next visibility...
Identifier
38397, 1965-027DA
Orbit
LEO
Country
Flag of USUS
Related business
Manufacturer
Unknown
Mission
Spacecraft
Bus & Motor
Unknown
Mass
Unknown
Launch date (UTC)
1965-04-03 (61 years ago)
Launch vehicle
Unknown
Launch site
Air Force Western Test Range (AFWTR)
Object type
Payload
Rocket body
Debris
Shape & HBR
Unknown shape, 0.1 m
Radar Cross Section
Small (<0.1 m²)

Expand to show TLE details & history
Last TLE update: 5 days ago

TLE from 5 days ago
0 OPS 4682 DEB
1 38397U 65027DA  25345.07323675  .00001070  00000-0  35242-2 0  9998
2 38397  90.2467  13.2380 0040615  35.8262 324.5572 12.99913629638410
Epoch: 2025-12-11T01:45Z
TLE epoch observation values (Epoch: 2025-12-11T01:45:27.655Z)
Latitude
-0.00001°
Longitude
-93.16168°
Altitude
1,240.065 km
Speed
7.247 km/s
True Right ascension
00h 52m 57s
True Declination
0° 00' 00"
Sunlit
Object was in daylight at epoch
Visualization orbit readout
Latitude
Unknown
Longitude
Unknown
Altitude
Unknown
Speed
Unknown
Apparent Right ascension
Unknown
Apparent Declination
Unknown
Sunlit
N/A
Visualization observer readout
Local Sidereal Time
22:13:35
Azimuth
Unknown
Elevation
Unknown
Doppler factor
Unknown
Orbital elements
Apogee altitude
1,290.573 km
Perigee altitude
1,228.532 km
Semi-major axis
7,637.689 km
Eccentricity
0.00406
Inclination
90.2467°
RAAN
13.238°
Arg. of periapsis
35.8262°
True anomaly
324.28619°
Mean anomaly
324.5572°
Eccentric anomaly
324.42181°
Mean motion
3.25162 °/min
Orbital period
110.71 mins
BSTAR
0.0035242
Loading maneuver chart data...
Computing Atmospheric mass density...
Loading historical data...
Loading historical data...
Loading historical data...
Loading historical data...
Loading historical data...
Loading historical data...
Loading historical data...

Documentation

Showing up to 5 results
|